White Rock, British Columbia

5:43 PM PDT on August 19, 2017 (GMT -0700)
White Rock

Weather History for CWWK - February, 2014

Change the Weather History Date:

Friday, February 28, 2014

  Actual Average Record
Temperature  
Mean Temperature 48 °F -  
Max Temperature 57 °F - - ()
Min Temperature 38 °F - - ()
Degree Days  
Heating Degree Days 18    
Moisture  
Dew Point 24 °F    
Average Humidity 48    
Maximum Humidity 89    
Minimum Humidity 9    
Precipitation  
Precipitation 0.00 in - - ()
Sea Level Pressure  
Sea Level Pressure 29.70 in    
Wind  
Wind Speed 4 mph ()    
Max Wind Speed 9 mph    
Max Gust Speed 20 mph    
T = Trace of Precipitation, MM = Missing Value Source: Averaged Metar Reports

Daily Weather History Graph

Daily Weather History Graph

Search for Another Location

Airport or City:

Trip Planner

Search our weather history database for the weather conditions in past years. The results will help you decide how hot, cold, wet, or windy it might be!

Date:

Astronomy

Feb. 28, 2014 Rise Set
Actual Time 6:54 AM PST 5:53 PM PST
Civil Twilight 6:23 AM PST 6:24 PM PST
Nautical Twilight 5:46 AM PST 7:01 PM PST
Astronomical Twilight 5:09 AM PST 7:38 PM PST
Moon 6:13 AM PST (2/28) 5:38 PM PST (2/28)
Length of Visible Light 12h 01m
Length of Day
10h 58m
Waning Crescent, 0% of the Moon is Illuminated
Feb 28
Waning Crescent
Mar 1
New
Mar 8
First Quarter
Mar 16
Full
Mar 23
Last Quarter

Hourly Weather History & Observations

Time (PST) Temp. Windchill Dew Point Humidity Pressure Visibility Wind Dir Wind Speed Gust Speed Precip Events Conditions
12:00 AM 40.6 °F - 34.7 °F 79% 29.80 in - NNE 2.3 mph - N/A   Unknown
1:00 AM 39.7 °F - 35.1 °F 83% 29.80 in - ENE 1.2 mph - N/A   Unknown
2:00 AM 41.4 °F - 36.7 °F 83% 29.80 in - NE 2.3 mph - N/A   Unknown
3:00 AM 41.7 °F 39.8 °F 37.0 °F 83% 29.78 in - NNE 3.5 mph - N/A   Unknown
4:00 AM 42 °F - 38 °F 80% 29.76 in - NNE 3.5 mph - -  
4:00 AM 42.3 °F 40.5 °F 37.9 °F 85% 29.76 in - NNE 3.5 mph - N/A   Unknown
5:00 AM 41.0 °F 39.0 °F 37.2 °F 86% 29.75 in - NNE 3.5 mph - N/A   Unknown
6:00 AM 40.5 °F 38.4 °F 36.9 °F 87% 29.74 in - North 3.5 mph - N/A   Unknown
7:00 AM 40.3 °F 38.2 °F 37.0 °F 88% 29.74 in - NNW 3.5 mph - N/A   Unknown
8:00 AM 41.7 °F - 38.7 °F 89% 29.74 in - NNW 2.3 mph - N/A   Unknown
9:00 AM 45.9 °F - 40.5 °F 81% 29.73 in - North 2.3 mph - N/A   Unknown
10:00 AM 49 °F - 36 °F 50% 29.73 in - ENE 2.3 mph - -  
10:00 AM 49.1 °F - 36.1 °F 61% 29.73 in - ENE 2.3 mph - N/A   Unknown
11:00 AM 53.8 °F - 28.4 °F 38% 29.73 in - East 5.8 mph - N/A   Unknown
12:00 PM 56.7 °F - 22.8 °F 27% 29.72 in - East 6.9 mph - N/A   Unknown
1:00 PM 57.2 °F - 16.2 °F 20% 29.69 in - ENE 8.1 mph 18.4 mph N/A   Unknown
2:00 PM 57.6 °F - 14.5 °F 18% 29.67 in - East 6.9 mph - N/A   Unknown
3:00 PM 56.8 °F - 13.3 °F 18% 29.66 in - ENE 6.9 mph - N/A   Unknown
4:00 PM 55 °F - 12 °F 9% 29.64 in - ENE 9.2 mph - -  
4:00 PM 55.4 °F - 12.0 °F 18% 29.64 in - ENE 9.2 mph 19.6 mph N/A   Unknown
5:00 PM 53.2 °F - 12.2 °F 20% 29.63 in - ENE 6.9 mph - N/A   Unknown
6:00 PM 48.9 °F - 10.8 °F 22% 29.62 in - ENE 6.9 mph - N/A   Unknown
7:00 PM 46.8 °F - 11.3 °F 24% 29.62 in - ENE 5.8 mph - N/A   Unknown
8:00 PM 45.1 °F 41.4 °F 9.1 °F 23% 29.62 in - ENE 6.9 mph - N/A   Unknown
9:00 PM 44.6 °F 40.2 °F 9.9 °F 24% 29.62 in - ENE 8.1 mph - N/A   Unknown
10:00 PM 44 °F - 9 °F 12% 29.62 in - ENE 9.2 mph - -  
10:00 PM 43.7 °F 38.6 °F 9.0 °F 24% 29.62 in - ENE 9.2 mph 19.6 mph N/A   Unknown
11:00 PM 42.8 °F 37.5 °F 7.2 °F 23% 29.63 in - ENE 9.2 mph - N/A   Unknown